Regional Weather Roundup
Issued by NWS

Home | Current Version | Previous Version | Text Only | Print | Product List | Glossary Off
Versions: 1 2 3 4 5 6 7 8 9 10 11 12 13 14 15 16 17 18 19 20 21 22 23 24 25 26 27 28 29 30 31 32 33 34 35 36 37 38 39 40 41 42 43 44 45 46 47 48 49 50

000
ASUS43 KLOT 172100
RWRIL

ILLINOIS REGIONAL WEATHER ROUNDUP
NATIONAL WEATHER SERVICE CHICAGO/ROMEOVILLE IL
300 PM CST WED DEC 17 2014

NOTE: "FAIR" INDICATES FEW OR NO CLOUDS BELOW 12,000 FEET WITH NO
SIGNIFICANT WEATHER AND/OR OBSTRUCTIONS TO VISIBILITY.

* THESE STATIONS ARE NOT UNDER NWS QUALITY CONTROL. THEY ALSO MAY NOT
  REPORT WEATHER SUCH AS PRECIPITATION OR FOG.

ILZ001-002-007-009-015-016-024-172200-
NORTHWEST ILLINOIS

CITY           SKY/WX    TMP DP  RH WIND       PRES   REMARKS
MOLINE         SUNNY     29  15  56 NW12      30.27R WCI  19
STERLING*      CLOUDY    27  16  63 NW10      30.25R WCI  17
$$

ILZ003-004-008-010-011-017-018-172200-
NORTH CENTRAL ILLINOIS

CITY           SKY/WX    TMP DP  RH WIND       PRES   REMARKS
ROCKFORD       CLOUDY    24  15  68 NW12      30.25S WCI  13
$$

ILZ005-006-012>014-019>023-172200-
NORTHEAST ILLINOIS

CITY           SKY/WX    TMP DP  RH WIND       PRES   REMARKS
CHICAGO-OHARE  CLOUDY    26  16  65 W13       30.21R WCI  15
CHICAGO-MIDWAY CLOUDY    28  17  63 NW10      30.22R WCI  19
AURORA         CLOUDY    27  17  66 W15       30.23R WCI  15
WAUKEGAN       CLOUDY    25  15  66 NW9       30.20R WCI  15
DUPAGE AIRPORT CLOUDY    26  17  68 NW10      30.21S WCI  16
WHEELING       CLOUDY    26  16  65 W13       30.23R WCI  15
NORTHERLY ISL    N/A     27  18  69 W15         N/A  WCI  15
$$

LMZ740>746-172200-
SOUTHERN LAKE MICHIGAN

STATION/POSITION SKY/WX   TEMP    WIND        PRES    VSBY  WAVE
                          AIR SEA DIR/SP/G                  HT/PER
                          (F)     (DEG/KT/KT) (MB)    (MI)  (FT/S)
WAUKEGAN HARBOR            26     300/ 11/ 23   N/A
HARRISON CRIB              26     290/ 15/ 18   N/A
BURNHAM HARBOR             27     290/  9/ 14   N/A
CALUMET HARBOR             27     250/  5/ 11 1021.8F
$$

ILZ025>027-034>036-040-047-049-050-058-095>099-172200-
WEST-CENTRAL ILLINOIS

CITY           SKY/WX    TMP DP  RH WIND       PRES   REMARKS
QUINCY         SUNNY     27  18  69 NW5       30.29R WCI  22
$$

ILZ028>032-037-038-041>044-048-051>054-059>061-172200-
CENTRAL ILLINOIS

CITY           SKY/WX    TMP DP  RH WIND       PRES   REMARKS
DECATUR        CLOUDY    24  19  81 NW7       30.29R WCI  16
PEORIA         MOSUNNY   28  18  66 W7        30.28S WCI  21
SPRINGFIELD    SUNNY     26  19  74 NW8       30.29F WCI  18
TAYLORVILLE    NOT AVBL
$$

ILZ033-039-045-046-055>057-062-063-172200-
EAST-CENTRAL ILLINOIS

CITY           SKY/WX    TMP DP  RH WIND       PRES   REMARKS
CHAMPAIGN      CLOUDY    24  19  81 W12       30.28R WCI  13
MATTOON        CLOUDY    26  20  77 NW8       30.27R WCI  18
$$

ILZ079-100>102-172200-
SOUTHWEST ILLINOIS

CITY           SKY/WX    TMP DP  RH WIND       PRES   REMARKS
ALTON          MOSUNNY   36  25  64 N6        30.28  WCI  31
BELLEVILLE     SUNNY     39  25  57 N5        30.26S
CAHOKIA*       MOSUNNY   40  25  55 N6        30.28R
$$

ILZ064>066-069>071-074>076-080>082-084>086-088>090-092>094-172200-
SOUTH-CENTRAL ILLINOIS

CITY           SKY/WX    TMP DP  RH WIND       PRES   REMARKS
CARBONDALE     SUNNY     39  25  57 N3        30.27F
MARION         MOSUNNY   37  27  65 NW6       30.28S WCI  33
MT. VERNON     MOSUNNY   37  25  60 SW5       30.28S WCI  34
$$

ILZ067-068-072-073-078-083-087-091-172200-
SOUTHEAST ILLINOIS

CITY           SKY/WX    TMP DP  RH WIND       PRES   REMARKS
LAWRENCEVILLE  CLOUDY    32  24  72 NW12      30.30R WCI  23
$$

ABBREVIATIONS USED IN REMARKS
   TC - TEMPERATURE IN CELSIUS
  WCI - WIND CHILL INDEX
   HX - HEAT INDEX
  VSB - VISIBILITY
$$



USA.gov is the U.S. government's official web portal to all federal, state and local government web resources and services.